Regional Weather Roundup
Issued by NWS

Home | Current Version | Previous Version | Text Only | Print | Product List | Glossary Off
Versions: 1 2 3 4 5 6 7 8 9 10 11 12 13 14 15 16 17 18 19 20 21 22 23 24 25 26 27 28 29 30 31 32 33 34 35 36 37 38 39 40 41 42 43 44 45 46 47 48 49 50

621
ASUS44 KMEG 211000
RWRTN
TENNESSEE HOURLY STATE WEATHER ROUNDUP
NATIONAL WEATHER SERVICE MEMPHIS TN
400 AM CST TUE NOV 21 2017

TNZ002-004-019-021-049-052-054-088>092-211100-
WEST TENNESSEE

CITY           SKY/WX    TMP DP  RH WIND       PRES   REMARKS
MEMPHIS INTL   CLOUDY    39  31  72 S8        30.00F WCI  33
NWS MEMPHIS      N/A     36 N/A N/A MISG        N/A
JACKSON        CLOUDY    41  30  65 S7        30.03S
DYERSBURG      PTCLDY    38  29  70 S6        30.01F WCI  33
$$

TNZ008-025-027-028-033-062-065-066-211100-
NORTH MIDDLE TENNESSEE

CITY           SKY/WX    TMP DP  RH WIND       PRES   REMARKS
NASHVILLE      CLEAR     39  28  64 CALM      30.05F
CLARKSVILLE    CLOUDY    36  24  62 S6        30.04S WCI  31
SMYRNA         CLEAR     37  29  72 S8        30.06F WCI  31
CROSSVILLE     CLOUDY    43  29  57 VRB7      30.08F
$$

TNZ061-075-076-078-094-096-097-211100-
SOUTH MIDDLE TENNESSEE

CITY           SKY/WX    TMP DP  RH WIND       PRES   REMARKS
WINCHESTER     CLEAR     41  34  75 SE6       30.08F
$$

TNZ017-018-042-046-047-211100-
NORTHEAST TENNESSEE

CITY           SKY/WX    TMP DP  RH WIND       PRES   REMARKS
TRI CITIES     CLOUDY    26  24  92 CALM      30.13R
$$

TNZ012-013-036-069-073-074-211100-
CENTRAL EAST TENNESSEE

CITY           SKY/WX    TMP DP  RH WIND       PRES   REMARKS
KNOXVILLE      CLOUDY    30  30 100 CALM      30.10F
OAK RIDGE      PTCLDY    33  31  92 CALM      30.12F
$$

TNZ083-085-099-211100-
SOUTHEAST TENNESSEE

CITY           SKY/WX    TMP DP  RH WIND       PRES   REMARKS
CHATTANOOGA    CLOUDY    36  32  85 CALM      30.12F
$$

SKY/WX REPORTED AS FAIR MEANS FEW OR NO CLOUDS BELOW
12 THOUSAND FEET.





USA.gov is the U.S. government's official web portal to all federal, state and local government web resources and services.